Location: Unspecified
(0.0000°N, 0.0000°E)
Time: 01:31:01
(UTC+00:00)

N. Korean satellite - Pass Details

Date: 06 July 2020
Orbit: 454 x 506 km, 97.2° (Epoch: 08 July)

Event Time Altitude Azimuth Distance (km) Brightness Sun altitude
Rises 04:42:43 0° 32° (NNE) 2,452 11.1 -18.9°
Reaches altitude 10° 04:45:02 10° 47° (NE) 1,582 10.2 -18.4°
Maximum altitude 04:47:46 23° 101° (E) 1,010 8.8 -17.7°
Drops below altitude 10° 04:50:31 10° 155° (SSE) 1,591 9.2 -17.1°
Sets 04:52:50 0° 170° (S) 2,471 10.0 -16.6°
